CFBPU CZBB-CZBB

Flight info

Callsign CFBPU
Flight time 0h 11m
Altitude 3000
Route VFR
Aircraft PA24/L-VGDW/C

Departure

Time 2026-04-14 04:15
Airport Boundary Bay Airport (CZBB)

Arrival

Time 2026-04-14 04:26
Airport Boundary Bay Airport (CZBB)
Time Latitude Longitude Altitude Speed Heading
2026-04-14 04:10 49.08006 -123.00796 17 ft 0 kts 269°
2026-04-14 04:11 49.07956 -123.00848 17 ft 10 kts 221°
2026-04-14 04:11 49.07945 -123.00906 17 ft 8 kts 264°
2026-04-14 04:11 49.07938 -123.01015 17 ft 9 kts 264°
2026-04-14 04:12 49.07936 -123.01082 17 ft 10 kts 273°
2026-04-14 04:12 49.07940 -123.01196 17 ft 9 kts 272°
2026-04-14 04:12 49.07942 -123.01304 17 ft 13 kts 272°
2026-04-14 04:12 49.07945 -123.01443 17 ft 16 kts 271°
2026-04-14 04:13 49.07944 -123.01605 17 ft 10 kts 257°
2026-04-14 04:13 49.07919 -123.01637 17 ft 4 kts 234°
2026-04-14 04:13 49.07905 -123.01701 17 ft 10 kts 242°
2026-04-14 04:13 49.07867 -123.01787 17 ft 12 kts 234°
2026-04-14 04:14 49.07834 -123.01847 17 ft 8 kts 212°
2026-04-14 04:14 49.07796 -123.01835 17 ft 6 kts 111°
2026-04-14 04:14 49.07792 -123.01522 17 ft 63 kts 89°
2026-04-14 04:14 49.07815 -123.00621 131 ft 99 kts 87°
2026-04-14 04:15 49.07870 -122.99491 479 ft 109 kts 83°
2026-04-14 04:15 49.07947 -122.98336 921 ft 108 kts 83°
2026-04-14 04:15 49.08053 -122.97196 1229 ft 115 kts 81°
2026-04-14 04:15 49.08230 -122.96024 1613 ft 111 kts 72°
2026-04-14 04:16 49.08462 -122.94903 1690 ft 116 kts 65°
2026-04-14 04:16 49.08982 -122.93978 1796 ft 118 kts 33°
2026-04-14 04:16 49.09786 -122.93665 1870 ft 122 kts 356°
2026-04-14 04:16 49.10541 -122.94196 2018 ft 124 kts 315°
2026-04-14 04:17 49.11113 -122.95181 2173 ft 119 kts 309°
2026-04-14 04:17 49.11569 -122.96109 2184 ft 116 kts 304°
2026-04-14 04:17 49.12015 -122.97222 2138 ft 121 kts 299°
2026-04-14 04:17 49.12414 -122.98386 2129 ft 127 kts 296°
2026-04-14 04:18 49.12781 -122.99571 2140 ft 120 kts 294°
2026-04-14 04:18 49.13159 -123.00741 1960 ft 125 kts 301°
2026-04-14 04:18 49.13624 -123.01901 1818 ft 133 kts 302°
2026-04-14 04:18 49.14123 -123.03063 1755 ft 127 kts 304°
2026-04-14 04:19 49.14648 -123.04090 1739 ft 115 kts 309°
2026-04-14 04:19 49.15158 -123.05045 1654 ft 117 kts 309°
2026-04-14 04:19 49.15650 -123.05951 1463 ft 109 kts 309°
2026-04-14 04:19 49.16124 -123.06869 1278 ft 111 kts 306°
2026-04-14 04:20 49.16563 -123.07846 1129 ft 104 kts 304°
2026-04-14 04:20 49.16941 -123.08739 991 ft 99 kts 302°
2026-04-14 04:20 49.17296 -123.09630 834 ft 102 kts 301°
2026-04-14 04:20 49.17629 -123.10596 737 ft 104 kts 295°
2026-04-14 04:21 49.17872 -123.11627 610 ft 105 kts 285°
2026-04-14 04:21 49.18036 -123.12634 421 ft 103 kts 283°
2026-04-14 04:21 49.18170 -123.13658 329 ft 96 kts 281°
2026-04-14 04:21 49.18296 -123.14681 248 ft 102 kts 282°
2026-04-14 04:22 49.18428 -123.15670 112 ft 92 kts 277°
2026-04-14 04:22 49.18545 -123.16651 31 ft 90 kts 272°
2026-04-14 04:22 49.18642 -123.17448 142 ft 91 kts 270°
2026-04-14 04:22 49.18686 -123.18343 352 ft 103 kts 271°
2026-04-14 04:23 49.18764 -123.19389 452 ft 115 kts 273°
2026-04-14 04:23 49.18778 -123.20635 584 ft 117 kts 249°
2026-04-14 04:23 49.18180 -123.21342 710 ft 116 kts 184°
2026-04-14 04:23 49.17557 -123.20656 784 ft 128 kts 114°
2026-04-14 04:24 49.17428 -123.19253 707 ft 132 kts 99°
2026-04-14 04:24 49.17362 -123.17904 621 ft 131 kts 98°
2026-04-14 04:24 49.17312 -123.16597 652 ft 128 kts 96°
2026-04-14 04:24 49.17285 -123.15292 618 ft 118 kts 96°
2026-04-14 04:25 49.17416 -123.14111 551 ft 108 kts 64°
2026-04-14 04:25 49.18064 -123.13716 501 ft 109 kts 338°
2026-04-14 04:25 49.18416 -123.14644 269 ft 101 kts 268°
2026-04-14 04:25 49.18436 -123.15627 101 ft 87 kts 274°
2026-04-14 04:26 49.18520 -123.16477 35 ft 73 kts 274°
2026-04-14 04:26 49.18592 -123.17127 18 ft 49 kts 270°
2026-04-14 04:26 49.18607 -123.17388 17 ft 14 kts 280°
2026-04-14 04:26 49.18624 -123.17542 17 ft 13 kts 279°
2026-04-14 04:27 49.18576 -123.17615 17 ft 9 kts 222°
2026-04-14 04:27 49.18546 -123.17661 17 ft 4 kts 224°
2026-04-14 04:27 49.18512 -123.17709 17 ft 6 kts 222°
2026-04-14 04:27 49.18486 -123.17744 17 ft 2 kts 211°
2026-04-14 04:28 49.18454 -123.17655 17 ft 14 kts 102°
2026-04-14 04:28 49.18440 -123.17534 17 ft 11 kts 98°
2026-04-14 04:28 49.18427 -123.17399 17 ft 13 kts 99°
2026-04-14 04:28 49.18386 -123.17308 17 ft 5 kts 146°
2026-04-14 04:29 49.18375 -123.17297 17 ft 0 kts 146°
2026-04-14 04:29 49.18292 -123.17201 17 ft 18 kts 145°
2026-04-14 04:29 49.18208 -123.17180 17 ft 10 kts 181°
2026-04-14 04:30 49.18192 -123.17142 17 ft 10 kts 98°
2026-04-14 04:30 49.18174 -123.17086 17 ft 0 kts 149°